Location: Unspecified
(0.0000°N, 0.0000°E)
Time: 05:58:42
(UTC+00:00)

Vanguard 3 - Pass Details

Date: 11 December 2017
Orbit: 508 x 3264 km, 33.4° (Epoch: 17 January)

Event Time Altitude Azimuth Distance (km) Brightness Sun altitude
Rises 05:49:58 0° 222° (SW) 7,039 11.7 -0.8°
Reaches altitude 10° 05:56:32 10° 211° (SSW) 5,703 11.4 0.8°
Maximum altitude 06:08:50 25° 162° (SSE) 3,650 11.1 3.6°
Drops below altitude 10° 06:17:17 10° 111° (ESE) 3,864 13.7 5.5°
Sets 06:20:36 0° 97° (E) 4,456 12.7 6.3°
